St. Petersburg Airport, FL

6:19 AM EST on November 19, 2017 (GMT -0500)
Saint Petersburg-Clearwater International

Weather History for KPIE - December, 2012

Change the Weather History Date:

Thursday, December 13, 2012

  Actual Average Record
Temperature  
Mean Temperature 64 °F -  
Max Temperature 70 °F 72 °F 84 °F (1956)
Min Temperature 55 °F 57 °F 22 °F (1962)
Degree Days  
Heating Degree Days 2    
Growing Degree Days 14 (Base 50)    
Moisture  
Dew Point 58 °F    
Average Humidity 82    
Maximum Humidity 100    
Minimum Humidity 60    
Precipitation  
Precipitation 0.00 in - - ()
Sea Level Pressure  
Sea Level Pressure 30.15 in    
Wind  
Wind Speed 12 mph (North)    
Max Wind Speed 16 mph    
Max Gust Speed 22 mph    
Visibility 10 miles    
Events      
Averages and records for this station are not official NWS values.
T = Trace of Precipitation, MM = Missing Value Source: NWS Daily Summary

Daily Weather History Graph

Daily Weather History Graph

Search for Another Location

Airport or City:

Trip Planner

Search our weather history database for the weather conditions in past years. The results will help you decide how hot, cold, wet, or windy it might be!

Date:

Astronomy

Dec. 13, 2012 Rise Set
Actual Time 7:13 AM EST 5:37 PM EST
Civil Twilight 6:47 AM EST 6:02 PM EST
Nautical Twilight 6:18 AM EST 6:31 PM EST
Astronomical Twilight 5:49 AM EST 7:00 PM EST
Moon 7:22 AM EST (12/13) 6:16 PM EST (12/13)
Length of Visible Light 11h 15m
Length of Day
10h 23m
New Moon, 0% of the Moon is Illuminated
Dec 13
New Moon
Dec 20
First Quarter
Dec 28
Full
Jan 4
Last Quarter
Jan 11
New

Hourly Weather History & Observations

Time (EST) Temp. Dew Point Humidity Pressure Visibility Wind Dir Wind Speed Gust Speed Precip Events Conditions
12:46 AM 66.2 °F 64.4 °F 94% 30.08 in 10.0 mi NW 11.5 mph - N/A   Overcast
12:53 AM 66.9 °F 64.9 °F 93% 30.09 in 10.0 mi NW 11.5 mph - N/A   Overcast
1:33 AM 66.2 °F 64.4 °F 94% 30.08 in 10.0 mi NNW 13.8 mph - N/A   Overcast
1:53 AM 66.9 °F 64.0 °F 90% 30.08 in 10.0 mi NNW 10.4 mph - N/A   Overcast
2:33 AM 64.4 °F 64.4 °F 100% 30.09 in 9.0 mi NNW 13.8 mph - N/A   Overcast
2:53 AM 66.0 °F 63.0 °F 90% 30.08 in 10.0 mi NNW 8.1 mph - N/A   Overcast
3:53 AM 64.0 °F 61.0 °F 90% 30.09 in 10.0 mi NNW 15.0 mph - N/A   Overcast
4:22 AM 62.6 °F 60.8 °F 94% 30.09 in 10.0 mi NNW 15.0 mph - N/A   Overcast
4:53 AM 64.0 °F 61.0 °F 90% 30.10 in 10.0 mi NNW 10.4 mph - N/A   Overcast
5:05 AM 64.4 °F 60.8 °F 88% 30.10 in 10.0 mi NNW 10.4 mph - N/A   Overcast
5:53 AM 64.9 °F 61.0 °F 87% 30.12 in 10.0 mi NNW 10.4 mph - N/A   Mostly Cloudy
6:17 AM 64.4 °F 60.8 °F 88% 30.12 in 10.0 mi NNW 15.0 mph 19.6 mph N/A   Overcast
6:53 AM 64.0 °F 60.1 °F 87% 30.13 in 10.0 mi NNW 16.1 mph - N/A   Mostly Cloudy
7:24 AM 62.6 °F 60.8 °F 94% 30.14 in 10.0 mi NNW 11.5 mph - N/A   Scattered Clouds
7:53 AM 63.0 °F 60.1 °F 90% 30.15 in 10.0 mi NNW 9.2 mph - N/A   Partly Cloudy
8:53 AM 66.0 °F 59.0 °F 78% 30.17 in 10.0 mi North 12.7 mph 18.4 mph N/A   Partly Cloudy
9:53 AM 66.9 °F 57.9 °F 73% 30.19 in 10.0 mi NNW 9.2 mph - N/A   Scattered Clouds
10:53 AM 69.1 °F 57.0 °F 65% 30.19 in 10.0 mi North 12.7 mph - N/A   Scattered Clouds
11:53 AM 69.1 °F 57.0 °F 65% 30.18 in 10.0 mi North 11.5 mph - N/A   Partly Cloudy
12:23 PM 69.8 °F 57.2 °F 64% 30.18 in 10.0 mi NNE 11.5 mph - N/A   Mostly Cloudy
12:36 PM 69.8 °F 55.4 °F 60% 30.17 in 10.0 mi NNE 10.4 mph - N/A   Scattered Clouds
12:53 PM 70.0 °F 55.9 °F 61% 30.17 in 10.0 mi North 9.2 mph - N/A   Scattered Clouds
1:32 PM 68.0 °F 57.2 °F 68% 30.14 in 10.0 mi NNE 8.1 mph - N/A   Mostly Cloudy
1:53 PM 69.1 °F 57.9 °F 68% 30.14 in 10.0 mi NNE 12.7 mph - N/A   Mostly Cloudy
2:42 PM 66.2 °F 57.2 °F 73% 30.15 in 10.0 mi NE 11.5 mph - N/A   Mostly Cloudy
2:53 PM 66.0 °F 55.9 °F 70% 30.15 in 10.0 mi NNE 9.2 mph - N/A   Overcast
3:53 PM 64.0 °F 55.9 °F 75% 30.15 in 10.0 mi NE 8.1 mph - N/A   Overcast
4:53 PM 64.0 °F 55.9 °F 75% 30.15 in 10.0 mi NE 12.7 mph 17.3 mph N/A   Overcast
6:53 PM 60.8 °F 55.4 °F 82% 30.17 in 10.0 mi NE 12.7 mph 20.7 mph N/A   Overcast
7:53 PM 60.8 °F 53.6 °F 77% 30.19 in 10.0 mi ENE 11.5 mph 18.4 mph N/A   Overcast
8:53 PM 57.9 °F 54.0 °F 87% 30.21 in 10.0 mi NE 13.8 mph 20.7 mph N/A   Overcast
9:00 PM 57.2 °F 53.6 °F 88% 30.21 in 10.0 mi NE 11.5 mph 21.9 mph N/A   Overcast
9:27 PM 57.2 °F 53.6 °F 88% 30.22 in 10.0 mi NE 10.4 mph 19.6 mph N/A   Overcast
9:53 PM 59.0 °F 53.1 °F 81% 30.21 in 10.0 mi NE 13.8 mph 19.6 mph N/A   Overcast
10:53 PM 57.0 °F 52.0 °F 83% 30.21 in 10.0 mi NNE 11.5 mph 21.9 mph N/A   Overcast
11:18 PM 57.2 °F 51.8 °F 82% 30.21 in 10.0 mi NE 11.5 mph 20.7 mph N/A   Overcast
11:53 PM 55.9 °F 51.1 °F 84% 30.21 in 10.0 mi NE 10.4 mph - N/A   Overcast